Location: Proctor
(47.8934°N, 114.3048°W)
Time: 00:58:52
(UTC+00:00)

AO-109 - Pass Details

Date: 11 July 2022
Orbit: 469 x 506 km, 60.7° (Epoch: 16 August)

Event Time Altitude Azimuth Distance (km) Brightness Sun altitude
Exits shadow 09:38:40 19° 259° (WSW) 1,211 ? -15.3°
Maximum altitude 09:41:00 42° 323° (NW) 696 ? -15.2°
Drops below altitude 10° 09:44:37 10° 36° (NE) 1,680 ? -14.9°
Sets 09:46:52 0° 43° (NE) 2,572 ? -14.7°
